"Pseudo-MPEC" for C14WX75

Created 2025 Jul 7 22:35:03 UT using Find_Orb

Click here for an explanation of pseudo-MPECs

 
 Astrometry: 
     C14WX75* C2025 06 30.42117320 44 33.443-02 27 38.02   ~6UB5 20.61GVNEOCPV00
     C14WX75  C2025 06 30.43234220 44 25.296-02 19 29.60   ~6UB5       VNEOCPV00
     C14WX75  C2025 06 30.43793420 44 21.232-02 15 25.38   ~6UB5       VNEOCPV00
     C14WX75 KC2025 06 30.45938620 44 05.190-01 59 39.80   ~6UBZ 19.25GVNEOCPI52
     C14WX75 KC2025 06 30.46058820 44 04.276-01 58 46.45   ~6UBZ 19.63GVNEOCPI52
     C14WX75 KC2025 06 30.46178120 44 03.376-01 57 54.40   ~6UBZ 19.79GVNEOCPI52
     C14WX75 KC2025 06 30.46297520 44 02.569-01 57 00.76   ~6UBZ 19.32GVNEOCPI52
     C14WX75 KC2025 06 30.48692620 44 25.339-01 26 46.39   ~6UD5 19.9 GWNEOCP474
     C14WX75 KC2025 06 30.48923420 44 23.810-01 25 01.96   ~6UD5 19.7 GWNEOCP474
     C14WX75 KC2025 06 30.49154220 44 22.356-01 23 19.36   ~6UD5 19.9 GWNEOCP474
     C14WX75 KC2025 06 30.49388420 44 20.738-01 21 34.31   ~6UD5 19.3 GWNEOCP474
     C14WX75 KC2025 06 30.93542820 40 14.22 +04 14 48.7    ~72MZ 19.5 GVNEOCP104
     C14WX75 KC2025 06 30.93808920 40 12.32 +04 17 03.8    ~72MZ 19.9 GVNEOCP104
     C14WX75 KB2025 06 30.94380920 40 12.04 +04 21 46.0    ~72MZ 20.1 GVNEOCPI93
     C14WX75 KB2025 06 30.94981320 40 07.67 +04 26 52.7    ~72MZ 19.6 GVNEOCPI93
     C14WX75 KB2025 06 30.95575520 40 03.34 +04 31 56.6    ~72MZ 19.6 GVNEOCPI93

Station data:
(104) San Marcello Pistoiese  (N44.064178 E10.803750)  Italy.  Observers P.
   Bacci, M. Maestripieri. Measurers P. Bacci, L. Tesi, G. Fagioli. 0.60-m
   reflector + CCD.
(474) Mount John Observatory, Lake Tekapo  (S43.987385 E170.464960)  New
   Zealand.  Observers A. C. Gilmore, P. M. Kilmartin. Measurer P. M.
   Kilmartin. 1.0-m f/7.7 reflector + CCD.
(I52) Steward Observatory, Mt. Lemmon Station  (N32.442570 W110.788920)
   US/Arizona.  Observers T. A. Pruyne, B. M. Africano, E. J. Christensen, G.
   A. Farneth, D. C. Fuls, A. R. Gibbs, A. D. Grauer, H. Gröller, J. A.
   Johnson, R. A. Kowalski, S. M. Larson, G. J. Leonard, D. Rankin, R. L.
   Seaman, F. C. Shelly, K. W. Wierzchoś. 1.0-m prime focus + CCD.
(I93) St Pardon de Conques  (N44.558670 W0.202960)  France.  Observers F.
   Losse, W. D'Anna. Measurer F. Losse. 0.40-m f/3.7 reflector + CCD.
(V00) Kitt Peak-Bok  (N31.963125 W111.600190)  US/Arizona.  Observers T. A.
   Pruyne, B. M. Africano, E. J. Christensen, G. A. Farneth, D. C. Fuls, A.
   R. Gibbs, A. D. Grauer, H. Gröller, J. A. Johnson, R. A. Kowalski, S. M.
   Larson, G. J. Leonard, D. Rankin, R. L. Seaman, F. C. Shelly, K. W.
   Wierzchoś. 2.25-m reflector + 4x4K mosaic CCD.

Orbital elements:  C14WX75
   Perihelion 2025 Oct 14.75978 +/- 0.072 TT = 18:14:04 (JD 2460963.25978)
Epoch 2025 Jul  1.0 TT = JDT 2460857.5   Earth MOID: 0.0107   Ve: 0.0393
M 241.47467346 +/- 0.018            (J2000 ecliptic)             AutoNEOCP
n   1.12070325 +/- 0.000784         Peri.  137.75582 +/- 0.059
a   0.91792872 +/- 0.000428         Node   277.59837 +/- 0.0020
e   0.1952058 +/- 0.000703          Incl.    8.88030 +/- 0.016
P   0.879/321.221d         H 27.68  G  0.15   U  7.9
q 0.73874369 +/- 0.000989    Q 1.09711375 +/- 0.000147
From 16 observations 2025 June 30 (12.8 hr); mean residual 0".86
Residuals in arcseconds: 
250630 V00  .35+  .07+    250630 I52  .61-  1.6+    250630 104  .26+  .55-    
250630 V00  .39+  .74-    250630 474  .71+  1.5-    250630 I93  .39+  .17-    
250630 V00  .61+  2.1-    250630 474  .22+  .09-    250630 I93  .04+  .38+    
250630 I52  .17-  1.5+    250630 474  .94+  .56-    250630 I93  .25+  .80+    
250630 I52  .85-  1.6+    250630 474  .38-  .18-    
250630 I52  1.4-  .87+    250630 104  .86-  .36-    

Ephemerides (geocentric):
Date (UTC) HH   RA             Dec           delta  r     elong  mag " sig PA
---- --------  ------------   ------------  ------ ------ -----  --- --------
2025 07 07 23  13 34 53.894   +79 29 47.44  .02345 1.0085  69.1 23.7  573  73
2025 07 08 00  13 30 48.229   +79 26 20.94  .02358 1.0084  68.9 23.7  572  72
2025 07 08 01  13 26 48.001   +79 22 45.32  .02372 1.0082  68.7 23.7  572  71
2025 07 08 02  13 22 53.171   +79 19 01.12  .02386 1.0081  68.6 23.8  572  70
2025 07 08 03  13 19 03.689   +79 15 08.85  .02399 1.0080  68.4 23.8  572  69
2025 07 08 04  13 15 19.496   +79 11 09.03  .02413 1.0079  68.2 23.8  572  68
2025 07 08 05  13 11 40.523   +79 07 02.14  .02427 1.0078  68.1 23.8  572  67
2025 07 08 06  13 08 06.695   +79 02 48.64  .02441 1.0077  67.9 23.9  572  67
2025 07 08 07  13 04 37.931   +78 58 28.98  .02454 1.0076  67.7 23.9  571  66
2025 07 08 08  13 01 14.142   +78 54 03.57  .02468 1.0074  67.6 23.9  571  65
2025 07 08 09  12 57 55.238   +78 49 32.84  .02482 1.0073  67.4 23.9  571  64
2025 07 08 10  12 54 41.122   +78 44 57.17  .02496 1.0072  67.2 23.9  571  63
2025 07 08 11  12 51 31.696   +78 40 16.93  .02510 1.0071  67.1 24.0  571  63
2025 07 08 12  12 48 26.860   +78 35 32.47  .02524 1.0070  66.9 24.0  571  62
2025 07 08 13  12 45 26.511   +78 30 44.13  .02538 1.0069  66.8 24.0  570  61
2025 07 08 14  12 42 30.544   +78 25 52.24  .02552 1.0067  66.6 24.0  570  60
2025 07 08 15  12 39 38.857   +78 20 57.08  .02566 1.0066  66.5 24.0  570  60
2025 07 08 16  12 36 51.344   +78 15 58.97  .02580 1.0065  66.3 24.1  570  59
2025 07 08 17  12 34 07.900   +78 10 58.16  .02594 1.0064  66.2 24.1  569  58
2025 07 08 18  12 31 28.422   +78 05 54.91  .02608 1.0063  66.0 24.1  569  58
2025 07 08 19  12 28 52.807   +78 00 49.49  .02622 1.0062  65.9 24.1  569  57
2025 07 08 20  12 26 20.952   +77 55 42.11  .02636 1.0060  65.7 24.1  569  56
2025 07 08 21  12 23 52.756   +77 50 33.01  .02650 1.0059  65.6 24.2  568  56
2025 07 08 22  12 21 28.121   +77 45 22.38  .02664 1.0058  65.5 24.2  568  55
2025 07 08 23  12 19 06.949   +77 40 10.43  .02678 1.0057  65.3 24.2  568  55
2025 07 09 00  12 16 49.143   +77 34 57.34  .02692 1.0056  65.2 24.2  568  54
2025 07 09 01  12 14 34.610   +77 29 43.30  .02707 1.0055  65.0 24.2  567  54
2025 07 09 02  12 12 23.258   +77 24 28.46  .02721 1.0053  64.9 24.3  567  53
2025 07 09 03  12 10 14.996   +77 19 12.99  .02735 1.0052  64.8 24.3  567  52
2025 07 09 04  12 08 09.736   +77 13 57.03  .02749 1.0051  64.6 24.3  566  52
2025 07 09 05  12 06 07.394   +77 08 40.72  .02763 1.0050  64.5 24.3  566  51
2025 07 09 06  12 04 07.885   +77 03 24.20  .02778 1.0049  64.4 24.3  566  51
2025 07 09 07  12 02 11.127   +76 58 07.58  .02792 1.0048  64.2 24.4  565  51
2025 07 09 08  12 00 17.043   +76 52 51.00  .02806 1.0046  64.1 24.4  565  50
2025 07 09 09  11 58 25.554   +76 47 34.54  .02821 1.0045  64.0 24.4  565  50
2025 07 09 10  11 56 36.586   +76 42 18.33  .02835 1.0044  63.9 24.4  565  49
2025 07 09 11  11 54 50.066   +76 37 02.45  .02849 1.0043  63.7 24.4  564  49
2025 07 09 12  11 53 05.923   +76 31 46.99  .02864 1.0042  63.6 24.5  564  48
2025 07 09 13  11 51 24.089   +76 26 32.05  .02878 1.0041  63.5 24.5  564  48
2025 07 09 14  11 49 44.497   +76 21 17.70  .02892 1.0039  63.4 24.5  563  48
2025 07 09 15  11 48 07.083   +76 16 04.02  .02907 1.0038  63.2 24.5  563  47
2025 07 09 16  11 46 31.784   +76 10 51.07  .02921 1.0037  63.1 24.5  563  47
2025 07 09 17  11 44 58.540   +76 05 38.93  .02936 1.0036  63.0 24.5  562  46
2025 07 09 18  11 43 27.292   +76 00 27.65  .02950 1.0035  62.9 24.6  562  46
2025 07 09 19  11 41 57.983   +75 55 17.29  .02964 1.0034  62.8 24.6  562  46
2025 07 09 20  11 40 30.558   +75 50 07.91  .02979 1.0032  62.7 24.6  561  45
2025 07 09 21  11 39 04.963   +75 44 59.56  .02993 1.0031  62.5 24.6  561  45
2025 07 09 22  11 37 41.148   +75 39 52.28  .03008 1.0030  62.4 24.6  561  45